| time (UTC) | temp F | wind direction | speed knots | gust knots | rain 1hr in | rain 24hr in | rain mn in | humidity % | barometer mb |
| 20260507051004 | 41 | 227 | 1.7 | 4.3 | 0.00 | 0.00 | 0.00 | 59 | 1019.8 |
| 20260507050004 | 41 | 226 | 1.7 | 2.6 | 0.00 | 0.00 | 0.00 | 59 | 1019.9 |
| 20260507045004 | 41 | 285 | 0.9 | 5.2 | 0.00 | 0.00 | 0.00 | 60 | 1019.8 |
| 20260507043004 | 41 | 267 | 2.6 | 5.2 | 0.00 | 0.00 | 0.00 | 59 | 1019.6 |
| 20260507042003 | 41 | 330 | 2.6 | 4.3 | 0.00 | 0.00 | 0.00 | 60 | 1019.5 |
| 20260507040004 | 42 | 286 | 2.6 | 7.0 | 0.00 | 0.00 | 0.00 | 58 | 1019.5 |
| 20260507035004 | 42 | 313 | 1.7 | 5.2 | 0.00 | 0.00 | 0.00 | 58 | 1019.5 |
| 20260507034004 | 42 | 286 | 1.7 | 5.2 | 0.00 | 0.00 | 0.00 | 59 | 1019.5 |
| 20260507033003 | 42 | 285 | 1.7 | 6.1 | 0.00 | 0.00 | 0.00 | 59 | 1019.4 |
| 20260507032004 | 42 | 307 | 2.6 | 7.0 | 0.00 | 0.00 | 0.00 | 60 | 1019.3 |
| 20260507031004 | 42 | 317 | 1.7 | 6.1 | 0.00 | 0.00 | 0.00 | 59 | 1019.5 |
| 20260507025004 | 43 | 219 | 1.7 | 7.0 | 0.00 | 0.00 | 0.00 | 56 | 1019.5 |
| 20260507024004 | 43 | 184 | 1.7 | 6.1 | 0.00 | 0.00 | 0.00 | 56 | 1019.3 |
| 20260507023004 | 43 | 312 | 4.3 | 8.7 | 0.00 | 0.00 | 0.00 | 54 | 1019.2 |
| 20260507022004 | 44 | 287 | 4.3 | 7.0 | 0.00 | 0.00 | 0.00 | 53 | 1019.1 |
| 20260507021004 | 44 | 292 | 7.8 | 14.8 | 0.00 | 0.00 | 0.00 | 51 | 1019.1 |
| 20260507020003 | 44 | 298 | 6.1 | 11.3 | 0.00 | 0.00 | 0.00 | 51 | 1019.0 |
| 20260507014004 | 44 | 287 | 5.2 | 10.4 | 0.00 | 0.00 | 0.00 | 52 | 1018.8 |
| 20260507013004 | 45 | 278 | 2.6 | 7.0 | 0.00 | 0.00 | 0.00 | 51 | 1018.5 |
| 20260507011004 | 46 | 297 | 4.3 | 8.7 | 0.00 | 0.00 | 0.00 | 49 | 1018.5 |
| 20260507010004 | 46 | 262 | 3.5 | 13.9 | 0.00 | 0.00 | 0.00 | 47 | 1018.3 |
| 20260507005004 | 47 | 279 | 9.6 | 13.9 | 0.00 | 0.00 | 0.00 | 46 | 1018.2 |
| 20260507004004 | 47 | 288 | 5.2 | 21.7 | 0.00 | 0.00 | 0.00 | 45 | 1018.1 |
| 20260507002003 | 49 | 276 | 4.3 | 14.8 | 0.00 | 0.00 | 0.00 | 44 | 1018.1 |
| 20260507001002 | 49 | 266 | 9.6 | 20.9 | 0.00 | 0.00 | 0.00 | 43 | 1018.0 |
| 20260507000003 | 50 | 298 | 6.1 | 18.2 | 0.00 | 0.00 | 0.00 | 43 | 1018.0 |
| 20260506235003 | 49 | 299 | 9.6 | 20.0 | 0.00 | 0.00 | 0.00 | 43 | 1017.7 |
| 20260506234002 | 50 | 268 | 10.4 | 18.2 | 0.00 | 0.00 | 0.00 | 42 | 1017.7 |
| 20260506233002 | 51 | 307 | 11.3 | 17.4 | 0.00 | 0.00 | 0.00 | 42 | 1017.8 |
| 20260506232003 | 50 | 261 | 4.3 | 13.0 | 0.00 | 0.00 | 0.00 | 43 | 1017.7 |
| 20260506231003 | 50 | 279 | 7.0 | 14.8 | 0.00 | 0.00 | 0.00 | 42 | 1017.8 |
| 20260506230002 | 50 | 266 | 8.7 | 19.1 | 0.00 | 0.00 | 0.00 | 41 | 1017.6 |
| 20260506225002 | 50 | 284 | 4.3 | 14.8 | 0.00 | 0.00 | 0.00 | 42 | 1017.8 |
| 20260506224003 | 51 | 293 | 8.7 | 17.4 | 0.00 | 0.00 | 0.00 | 39 | 1017.6 |
| 20260506223002 | 50 | 277 | 7.8 | 20.9 | 0.00 | 0.00 | 0.00 | 42 | 1017.6 |
| 20260506222002 | 51 | 267 | 8.7 | 14.8 | 0.00 | 0.00 | 0.00 | 41 | 1017.6 |
| 20260506221002 | 51 | 269 | 5.2 | 13.9 | 0.00 | 0.00 | 0.00 | 42 | 1017.5 |
| 20260506220003 | 51 | 303 | 6.1 | 13.0 | 0.00 | 0.00 | 0.00 | 42 | 1017.7 |
| 20260506215003 | 51 | 290 | 3.5 | 13.0 | 0.00 | 0.00 | 0.00 | 42 | 1017.6 |
| 20260506214002 | 50 | 270 | 5.2 | 15.6 | 0.00 | 0.00 | 0.00 | 42 | 1017.6 |
| 20260506213003 | 51 | 292 | 7.8 | 13.9 | 0.00 | 0.00 | 0.00 | 42 | 1017.7 |
| 20260506212003 | 51 | 267 | 3.5 | 13.0 | 0.00 | 0.00 | 0.00 | 42 | 1017.6 |
| 20260506211002 | 51 | 301 | 6.1 | 13.9 | 0.00 | 0.00 | 0.00 | 42 | 1017.6 |
| 20260506210003 | 51 | 306 | 8.7 | 14.8 | 0.00 | 0.00 | 0.00 | 43 | 1017.6 |
| 20260506205003 | 51 | 280 | 7.8 | 17.4 | 0.00 | 0.00 | 0.00 | 43 | 1017.7 |
| 20260506204003 | 51 | 306 | 4.3 | 15.6 | 0.00 | 0.00 | 0.00 | 43 | 1017.8 |
| 20260506203002 | 50 | 287 | 6.1 | 13.9 | 0.00 | 0.00 | 0.00 | 45 | 1017.7 |
| 20260506202002 | 50 | 312 | 7.8 | 14.8 | 0.00 | 0.00 | 0.00 | 44 | 1017.8 |
| 20260506201003 | 51 | 311 | 4.3 | 11.3 | 0.00 | 0.00 | 0.00 | 45 | 1018.0 |
| 20260506200003 | 51 | 262 | 7.0 | 12.2 | 0.00 | 0.00 | 0.00 | 44 | 1018.0 |
| 20260506195003 | 50 | 266 | 5.2 | 13.9 | 0.00 | 0.00 | 0.00 | 45 | 1018.2 |
| 20260506194003 | 50 | 240 | 5.2 | 13.9 | 0.00 | 0.00 | 0.00 | 45 | 1018.0 |
| 20260506193003 | 50 | 300 | 2.6 | 10.4 | 0.00 | 0.00 | 0.00 | 44 | 1018.0 |
| 20260506192003 | 50 | 264 | 2.6 | 18.2 | 0.00 | 0.00 | 0.00 | 45 | 1018.2 |
| 20260506191003 | 50 | 281 | 6.1 | 10.4 | 0.00 | 0.00 | 0.00 | 45 | 1018.1 |
| 20260506190003 | 49 | 237 | 5.2 | 13.9 | 0.00 | 0.00 | 0.00 | 46 | 1018.4 |
| 20260506185002 | 49 | 340 | 3.5 | 12.2 | 0.00 | 0.00 | 0.00 | 46 | 1018.4 |
| 20260506184002 | 49 | 299 | 7.8 | 14.8 | 0.00 | 0.00 | 0.00 | 46 | 1018.3 |
| 20260506183002 | 49 | 297 | 10.4 | 15.6 | 0.00 | 0.00 | 0.00 | 47 | 1018.3 |
| 20260506182002 | 50 | 283 | 5.2 | 13.0 | 0.00 | 0.00 | 0.00 | 44 | 1018.4 |
| 20260506180003 | 49 | 252 | 3.5 | 13.9 | 0.00 | 0.00 | 0.00 | 47 | 1018.5 |
| 20260506175003 | 49 | 186 | 2.6 | 13.0 | 0.00 | 0.00 | 0.00 | 46 | 1018.6 |
| 20260506174003 | 49 | 321 | 6.1 | 10.4 | 0.00 | 0.00 | 0.00 | 48 | 1018.7 |
| 20260506172002 | 48 | 351 | 5.2 | 11.3 | 0.00 | 0.00 | 0.00 | 49 | 1019.1 |
| 20260506171003 | 49 | 301 | 3.5 | 8.7 | 0.00 | 0.00 | 0.00 | 49 | 1018.9 |
| 20260506170002 | 47 | 297 | 4.3 | 11.3 | 0.00 | 0.00 | 0.00 | 51 | 1019.0 |
| 20260506165003 | 48 | 358 | 3.5 | 6.1 | 0.00 | 0.00 | 0.00 | 50 | 1018.9 |
| 20260506164003 | 48 | 203 | 2.6 | 7.0 | 0.00 | 0.00 | 0.00 | 49 | 1018.9 |
| 20260506163003 | 48 | 183 | 3.5 | 8.7 | 0.00 | 0.00 | 0.00 | 51 | 1019.1 |
| 20260506162002 | 47 | 170 | 2.6 | 6.1 | 0.00 | 0.00 | 0.00 | 52 | 1019.0 |
| 20260506161003 | 48 | 159 | 1.7 | 7.8 | 0.00 | 0.00 | 0.00 | 52 | 1019.2 |
| 20260506160003 | 49 | 292 | 2.6 | 7.8 | 0.00 | 0.00 | 0.00 | 50 | 1019.4 |
| 20260506154003 | 49 | 125 | 3.5 | 7.0 | 0.00 | 0.00 | 0.00 | 54 | 1019.2 |
| 20260506153002 | 49 | 170 | 2.6 | 5.2 | 0.00 | 0.00 | 0.00 | 55 | 1019.5 |
| 20260506152003 | 47 | 302 | 4.3 | 7.0 | 0.00 | 0.00 | 0.00 | 56 | 1019.3 |
| 20260506151003 | 47 | 147 | 3.5 | 7.0 | 0.00 | 0.00 | 0.00 | 57 | 1019.3 |
| 20260506150003 | 46 | 285 | 2.6 | 5.2 | 0.00 | 0.00 | 0.00 | 60 | 1019.1 |
| 20260506145003 | 46 | 182 | 1.7 | 5.2 | 0.00 | 0.00 | 0.00 | 60 | 1019.3 |
| 20260506144002 | 45 | 64 | 2.6 | 7.8 | 0.00 | 0.00 | 0.00 | 62 | 1019.1 |
| 20260506143003 | 45 | 65 | 2.6 | 5.2 | 0.00 | 0.00 | 0.00 | 59 | 1019.3 |
| 20260506142003 | 45 | 139 | 2.6 | 7.0 | 0.00 | 0.00 | 0.00 | 63 | 1019.2 |
| 20260506141002 | 45 | 111 | 5.2 | 7.0 | 0.00 | 0.00 | 0.00 | 62 | 1019.2 |
| 20260506135002 | 44 | 78 | 2.6 | 7.8 | 0.00 | 0.00 | 0.00 | 64 | 1019.1 |
| 20260506134002 | 44 | 84 | 3.5 | 6.1 | 0.00 | 0.00 | 0.00 | 69 | 1019.0 |
| 20260506133002 | 42 | 148 | 2.6 | 6.1 | 0.00 | 0.00 | 0.00 | 73 | 1018.9 |
| 20260506132003 | 41 | 63 | 2.6 | 4.3 | 0.00 | 0.00 | 0.00 | 74 | 1019.0 |
| 20260506131002 | 41 | 85 | 3.5 | 7.0 | 0.00 | 0.00 | 0.00 | 75 | 1018.9 |
| 20260506130003 | 40 | 40 | 4.3 | 6.1 | 0.00 | 0.00 | 0.00 | 75 | 1018.9 |
| 20260506125002 | 39 | 57 | 4.3 | 5.2 | 0.00 | 0.00 | 0.00 | 79 | 1018.8 |
| 20260506124003 | 39 | 9 | 2.6 | 5.2 | 0.00 | 0.00 | 0.00 | 80 | 1018.6 |
| 20260506123003 | 38 | 92 | 3.5 | 5.2 | 0.00 | 0.00 | 0.00 | 82 | 1018.4 |
| 20260506122003 | 38 | 73 | 2.6 | 4.3 | 0.00 | 0.00 | 0.00 | 83 | 1018.3 |
| 20260506121003 | 37 | 82 | 1.7 | 4.3 | 0.00 | 0.00 | 0.00 | 85 | 1018.2 |
| 20260506115003 | 36 | 80 | 1.7 | 6.1 | 0.00 | 0.00 | 0.00 | 88 | 1018.4 |
| 20260506113002 | 34 | 53 | 2.6 | 4.3 | 0.00 | 0.00 | 0.00 | 91 | 1018.1 |
| 20260506112003 | 34 | 278 | 1.7 | 5.2 | 0.00 | 0.00 | 0.00 | 92 | 1018.0 |
| 20260506111003 | 33 | 239 | 1.7 | 4.3 | 0.00 | 0.00 | 0.00 | 93 | 1017.6 |
| 20260506110002 | 33 | 17 | 1.7 | 5.2 | 0.00 | 0.00 | 0.00 | 93 | 1017.5 |
| 20260506104003 | 32 | 94 | 1.7 | 2.6 | 0.00 | 0.00 | 0.00 | 94 | 1017.4 |
| 20260506103003 | 32 | 96 | 1.7 | 2.6 | 0.00 | 0.00 | 0.00 | 93 | 1017.3 |
| 20260506102002 | 32 | 99 | 1.7 | 2.6 | 0.00 | 0.00 | 0.00 | 93 | 1017.3 |
| 20260506101003 | 32 | 139 | 1.7 | 1.7 | 0.00 | 0.00 | 0.00 | 93 | 1017.3 |
| 20260506095003 | 33 | 104 | 1.7 | 1.7 | 0.00 | 0.00 | 0.00 | 91 | 1017.3 |
| 20260506094002 | 33 | 76 | 0.9 | 1.7 | 0.00 | 0.00 | 0.00 | 91 | 1017.1 |
| 20260506093002 | 34 | 62 | 0.9 | 1.7 | 0.00 | 0.00 | 0.00 | 90 | 1017.2 |
| 20260506092003 | 34 | 80 | 1.7 | 2.6 | 0.00 | 0.00 | 0.00 | 90 | 1017.3 |
| 20260506091003 | 34 | 77 | 1.7 | 2.6 | 0.00 | 0.00 | 0.00 | 90 | 1017.3 |
| 20260506090003 | 34 | 78 | 1.7 | 2.6 | 0.00 | 0.00 | 0.00 | 89 | 1017.4 |
| 20260506085002 | 35 | 85 | 1.7 | 2.6 | 0.00 | 0.00 | 0.00 | 88 | 1017.4 |
| 20260506084002 | 35 | 81 | 1.7 | 4.3 | 0.00 | 0.00 | 0.00 | 87 | 1017.1 |
| 20260506083003 | 36 | 87 | 2.6 | 4.3 | 0.00 | 0.00 | 0.00 | 86 | 1017.1 |
| 20260506082003 | 36 | 80 | 4.3 | 4.3 | 0.00 | 0.00 | 0.00 | 86 | 1017.0 |
| 20260506081003 | 36 | 91 | 2.6 | 4.3 | 0.00 | 0.00 | 0.00 | 85 | 1016.8 |
| 20260506073002 | 37 | 34 | 0.9 | 2.6 | 0.00 | 0.00 | 0.00 | 82 | 1016.8 |
| 20260506072003 | 37 | 58 | 1.7 | 4.3 | 0.00 | 0.00 | 0.00 | 81 | 1016.5 |
| 20260506071003 | 37 | 96 | 4.3 | 5.2 | 0.00 | 0.00 | 0.00 | 80 | 1016.2 |
| 20260506062003 | 36 | 77 | 4.3 | 6.1 | 0.00 | 0.00 | 0.00 | 74 | 1016.3 |
| 20260506061002 | 36 | 98 | 0.9 | 1.7 | 0.00 | 0.00 | 0.00 | 73 | 1016.2 |